Vorticity
nan nan nan nan nan nan nan nan nan nan nan nan nan nan nan nan nan nan nan nan nan nan
nan 8 8 8 7 8 8 9 9 9 9 9 9 9 8 7 8 8 8 11 11 nan
nan 7 8 9 9 8 8 8 9 8 9 10 10 9 8 7 9 8 8 10 9 nan
nan 8 8 7 8 8 9 10 9 9 11 9 9 8 8 8 9 8 7 8 9 nan
nan 10 8 7 9 9 8 9 10 10 9 9 9 10 9 9 9 9 8 8 8 nan
nan 9 8 7 9 9 10 8 10 11 9 10 9 9 10 9 8 9 8 9 9 nan
nan 8 9 9 9 10 9 9 9 9 10 9 9 9 10 9 8 9 9 9 9 nan
nan 9 9 9 9 10 9 9 10 9 9 9 9 9 8 9 10 9 9 9 9 nan
nan 10 8 8 9 8 8 9 11 10 10 7 9 11 8 6 8 10 9 9 10 nan
nan 9 10 10 8 8 10 11 11 9 9 9 11 12 11 6 6 10 10 10 8 nan
nan 10 10 10 8 8 11 10 7 8 12 13 13 14 9 11 8 9 9 10 10 nan
nan 7 10 9 10 10 11 11 11 9 11 11 14 14 11 11 10 9 11 11 10 nan
nan 13 10 10 10 10 11 13 12 15 13 10 10 13 15 8 8 10 10 10 12 nan
nan nan nan nan nan nan nan nan nan nan nan nan nan nan nan nan nan nan nan nan nan nan
CAPE
50 7 40 14 27 2 0 47 392 532 678 892 1065 962 1051 806 641 875 810 624 679 256
64 172 176 152 116 14 0 0 0 371 708 980 1012 1025 889 932 900 850 628 602 498 476
107 294 350 131 151 266 70 13 201 225 366 965 880 1148 873 1079 763 607 540 610 746 516
178 283 397 483 255 141 472 649 518 408 281 285 390 587 1073 993 945 777 517 381 602 569
113 278 342 413 535 592 831 838 617 516 167 225 2 24 785 1075 1198 957 1018 922 443 316
190 181 315 341 355 435 592 809 866 444 342 254 72 29 275 989 1074 941 808 755 885 797
239 282 340 401 549 665 632 667 760 799 401 232 316 686 1041 1016 972 944 889 779 834 885
210 321 390 439 723 882 931 795 634 702 798 720 685 909 956 898 895 874 862 847 940 990
253 300 467 608 733 987 1063 979 684 725 761 763 1084 1377 1199 906 897 997 1003 1065 971 910
654 521 611 955 946 977 1096 955 783 999 675 715 679 1073 1078 595 812 767 840 881 918 879
1017 1169 978 959 1140 1152 1061 742 865 712 835 786 701 803 879 247 179 399 380 368 395 453
1308 1302 1331 1209 1056 975 499 634 814 641 696 616 967 776 444 51 202 310 304 270 268 305
1315 1504 1327 1265 782 442 557 457 312 302 258 418 596 107 151 31 377 370 248 156 114 137
1376 1463 1412 1010 777 847 804 720 560 485 430 494 456 57 1 1 46 82 86 100 87 2